TimeWET,TemperatureF,Dew PointF,Humidity,Sea Level PressureIn,VisibilityMPH,Wind Direction,Wind SpeedMPH,Gust SpeedMPH,PrecipitationIn,Events,Conditions,WindDirDegrees,DateUTC
12:00 AM,63,59,83,30.05,6,Calm,Calm,,,,,,2012-10-11 00:00:00
12:00 AM,62.6,59.0,88,30.09,-9999.0,Calm,Calm,-,N/A,,Clear,0,2012-10-11 00:00:00
1:00 AM,60.8,59.0,94,30.09,-9999.0,Calm,Calm,-,N/A,,Clear,0,2012-10-11 01:00:00
2:00 AM,62.6,60.8,94,30.09,5.0,West,2.3,-,N/A,,Partly Cloudy,260,2012-10-11 02:00:00
3:00 AM,62,60,92,30.05,2,West,2.3,,,,,260,2012-10-11 03:00:00
3:00 AM,62.6,60.8,94,30.09,1.9,West,2.3,-,N/A,,Scattered Clouds,260,2012-10-11 03:00:00
4:00 AM,62.6,60.8,94,30.09,1.2,Calm,Calm,-,N/A,,Scattered Clouds,0,2012-10-11 04:00:00
5:00 AM,60.8,60.8,100,30.09,1.2,Calm,Calm,-,N/A,,Scattered Clouds,0,2012-10-11 05:00:00
6:00 AM,62,62,99,30.05,0,Calm,Calm,,,Fog,Partial Fog,,2012-10-11 06:00:00
7:00 AM,60.8,60.8,100,30.09,0.5,Calm,Calm,-,N/A,Fog,Fog,0,2012-10-11 07:00:00
8:00 AM,60.8,59.0,94,30.09,0.5,SE,2.3,-,N/A,Fog,Fog,140,2012-10-11 08:00:00
8:30 AM,60.8,59.0,94,30.09,-9999.0,North,-9999.0,-,N/A,,Overcast,0,2012-10-11 08:30:00
9:00 AM,63,61,91,30.08,2,NW,2.3,,,,Mostly Cloudy,320,2012-10-11 09:00:00
9:00 AM,62.6,60.8,94,30.12,1.9,NW,2.3,-,N/A,,Mostly Cloudy,320,2012-10-11 09:00:00
10:00 AM,68.0,60.8,78,30.12,2.5,NW,4.6,-,N/A,,Scattered Clouds,320,2012-10-11 10:00:00
10:12 AM,68.0,60.8,78,30.12,3.1,NW,5.8,-,N/A,,Scattered Clouds,310,2012-10-11 10:12:00
11:00 AM,71.6,59.0,64,30.12,3.1,NW,2.3,-,N/A,,Partly Cloudy,320,2012-10-11 11:00:00
12:00 PM,75,57,43,30.02,5,NW,4.6,,,,Scattered Clouds,310,2012-10-11 12:00:00
12:00 PM,75.2,57.2,53,30.09,5.0,NW,4.6,-,N/A,,Partly Cloudy,310,2012-10-11 12:00:00
1:00 PM,77.0,57.2,50,30.09,6.2,NW,4.6,-,N/A,,Scattered Clouds,310,2012-10-11 13:00:00
2:00 PM,78.8,57.2,47,30.06,6.2,NW,10.4,-,N/A,,Partly Cloudy,320,2012-10-11 14:00:00
3:00 PM,79,55,34,29.96,6,NW,6.9,,,,Scattered Clouds,310,2012-10-11 15:00:00
3:00 PM,78.8,55.4,44,30.06,6.2,NW,6.9,-,N/A,,Scattered Clouds,310,2012-10-11 15:00:00
4:00 PM,78.8,57.2,47,30.06,6.2,NNW,8.1,-,N/A,,Scattered Clouds,340,2012-10-11 16:00:00
6:00 PM,74,58,48,29.99,6,NNW,4.6,,,,Scattered Clouds,330,2012-10-11 18:00:00
6:00 PM,73.4,59.0,61,30.06,6.2,NNW,4.6,-,N/A,,Scattered Clouds,330,2012-10-11 18:00:00
7:00 PM,71.6,59.0,64,30.09,6.2,NW,6.9,-,N/A,,Scattered Clouds,320,2012-10-11 19:00:00
8:00 PM,68.0,60.8,78,30.09,6.2,NW,9.2,-,N/A,,Partly Cloudy,320,2012-10-11 20:00:00
9:00 PM,67,62,77,30.07,6,NW,6.9,,,,Partly Cloudy,310,2012-10-11 21:00:00
9:00 PM,66.2,60.8,83,30.12,6.2,NW,6.9,-,N/A,,Scattered Clouds,310,2012-10-11 21:00:00
10:00 PM,64.4,60.8,88,30.12,6.2,West,2.3,-,N/A,,Scattered Clouds,280,2012-10-11 22:00:00
11:00 PM,66.2,62.6,88,30.12,5.0,WNW,3.5,-,N/A,,Mostly Cloudy,290,2012-10-11 23:00:00